AWC14 EGKK-EDLP

Flight info

Callsign AWC14
Flight time N/A
Altitude 33000
Route FRANE M604 GASBA M197 REDFA L620 EXOBA EXOBA3H
Aircraft A320/M-SDE3FGHIRWY/LB1

Departure

Time N/A
Airport London Gatwick Airport (EGKK)

Arrival

Time 2026-05-08 14:23
Airport Paderborn Lippstadt Airport (EDLP)
Time Latitude Longitude Altitude Speed Heading
2026-05-08 14:15 51.36733 8.28661 24871 ft 425 kts 226°
2026-05-08 14:15 51.32516 8.21938 23043 ft 423 kts 226°
2026-05-08 14:15 51.28367 8.15339 21577 ft 409 kts 226°
2026-05-08 14:15 51.24372 8.09019 20147 ft 401 kts 226°
2026-05-08 14:16 51.20430 8.02816 18839 ft 395 kts 226°
2026-05-08 14:16 51.17860 7.95326 17413 ft 389 kts 261°
2026-05-08 14:16 51.18506 7.86894 16026 ft 385 kts 283°
2026-05-08 14:16 51.19429 7.78576 14673 ft 378 kts 278°
2026-05-08 14:17 51.21871 7.71385 13275 ft 376 kts 318°
2026-05-08 14:17 51.26641 7.68464 11875 ft 373 kts 359°
2026-05-08 14:17 51.31393 7.71208 10518 ft 368 kts 41°
2026-05-08 14:17 51.33969 7.78055 9172 ft 360 kts 69°
2026-05-08 14:18 51.35742 7.85458 7779 ft 353 kts 70°
2026-05-08 14:18 51.37486 7.92748 6429 ft 348 kts 70°
2026-05-08 14:18 51.39200 7.99914 5135 ft 340 kts 70°
2026-05-08 14:18 51.41033 8.06356 5129 ft 297 kts 64°
2026-05-08 14:19 51.42783 8.11944 5134 ft 264 kts 64°
2026-05-08 14:19 51.44383 8.17035 5141 ft 255 kts 64°
2026-05-08 14:19 51.45911 8.21884 5136 ft 230 kts 64°
2026-05-08 14:19 51.47314 8.26325 5144 ft 223 kts 64°
2026-05-08 14:20 51.48755 8.30802 4564 ft 236 kts 58°
2026-05-08 14:20 51.50626 8.35338 3752 ft 241 kts 57°
2026-05-08 14:20 51.52456 8.39777 3204 ft 235 kts 57°
2026-05-08 14:20 51.54129 8.43845 3008 ft 195 kts 58°
2026-05-08 14:21 51.55500 8.47183 2658 ft 166 kts 59°
2026-05-08 14:21 51.56706 8.50124 2276 ft 151 kts 59°
2026-05-08 14:21 51.57834 8.52881 1880 ft 147 kts 58°
2026-05-08 14:21 51.58869 8.55411 1475 ft 145 kts 58°
2026-05-08 14:22 51.59451 8.56803 1228 ft 158 kts 58°
2026-05-08 14:22 51.60059 8.58330 1015 ft 162 kts 59°
2026-05-08 14:22 51.60681 8.59849 794 ft 160 kts 59°
2026-05-08 14:22 51.61224 8.61192 715 ft 119 kts 57°
2026-05-08 14:23 51.61425 8.61688 709 ft 21 kts 69°
2026-05-08 14:23 51.61441 8.61875 711 ft 13 kts 89°
2026-05-08 14:23 51.61435 8.61963 713 ft 0 kts 116°
2026-05-08 14:24 51.61433 8.61970 713 ft 3 kts 116°
2026-05-08 14:24 51.61420 8.62001 717 ft 2 kts 133°
2026-05-08 14:24 51.61404 8.62016 720 ft 4 kts 155°
2026-05-08 14:25 51.61390 8.62024 718 ft 1 kts 169°
2026-05-08 14:25 51.61327 8.62009 720 ft 14 kts 192°
2026-05-08 14:25 51.61247 8.61987 728 ft 9 kts 188°
2026-05-08 14:25 51.61197 8.61950 730 ft 8 kts 223°
2026-05-08 14:26 51.61178 8.61908 731 ft 0 kts 235°
2026-05-08 14:26 51.61176 8.61904 731 ft 2 kts 235°
2026-05-08 14:26 51.61162 8.61871 730 ft 5 kts 235°
2026-05-08 14:26 51.61134 8.61819 731 ft 7 kts 205°
2026-05-08 14:27 51.61102 8.61843 731 ft 4 kts 145°
2026-05-08 14:27 51.61084 8.61862 731 ft 3 kts 147°
2026-05-08 14:27 51.61080 8.61867 731 ft 0 kts 146°